Change the Weather History Date:

Thursday, September 20, 2012

  Actual Average Record
Temperature  
Mean Temperature 54 °F -  
Max Temperature 68 °F 68 °F 84 °F (2005)
Min Temperature 41 °F 43 °F 30 °F (2006)
Degree Days  
Heating Degree Days 10    
Growing Degree Days 4 (Base 50)    
Moisture  
Dew Point 31 °F    
Average Humidity 43    
Maximum Humidity 76    
Minimum Humidity 20    
Precipitation  
Precipitation 0.00 in - - ()
Sea Level Pressure  
Sea Level Pressure 29.92 in    
Wind  
Wind Speed 8 mph (WNW)    
Max Wind Speed 17 mph    
Max Gust Speed 28 mph    
Visibility 10 miles    
Events Rain    
Averages and records for this station are not official NWS values.
T = Trace of Precipitation, MM = Missing Value Source: NWS Daily Summary

Daily Weather History Graph

Daily Weather History Graph

Search for Another Location

Airport or City:

Trip Planner

Search our weather history database for the weather conditions in past years. The results will help you decide how hot, cold, wet, or windy it might be!

Date:

Astronomy

Sep. 20, 2012 Rise Set
Actual Time 7:09 AM CDT 7:24 PM CDT
Civil Twilight 6:39 AM CDT 7:53 PM CDT
Nautical Twilight 6:05 AM CDT 8:28 PM CDT
Astronomical Twilight 5:29 AM CDT 9:03 PM CDT
Moon 12:45 PM CDT (9/20) 10:10 PM CDT (9/20)
Length of Visible Light 13h 13m
Length of Day
12h 15m
Waxing Crescent, 27% of the Moon is Illuminated
Sep 20
Waxing Crescent
Sep 22
First Quarter
Sep 29
Full
Oct 8
Last Quarter
Oct 15
New

Hourly Weather History & Observations

Time (CDT) Temp. Windchill Dew Point Humidity Pressure Visibility Wind Dir Wind Speed Gust Speed Precip Events Conditions
12:18 AM 44.6 °F 40.2 °F 33.8 °F 66% 29.90 in 10.0 mi West 8.1 mph - N/A   Clear
12:38 AM 44.6 °F 40.7 °F 33.8 °F 66% 29.90 in 10.0 mi West 6.9 mph - N/A   Clear
12:57 AM 44.6 °F 40.2 °F 33.8 °F 66% 29.91 in 10.0 mi WNW 8.1 mph - N/A   Clear
1:17 AM 46.4 °F 42.4 °F 33.8 °F 62% 29.91 in 10.0 mi West 8.1 mph - N/A   Clear
1:37 AM 46.4 °F 43.5 °F 33.8 °F 62% 29.91 in 10.0 mi West 5.8 mph - N/A   Clear
1:57 AM 44.6 °F 40.2 °F 33.8 °F 66% 29.91 in 10.0 mi WNW 8.1 mph - N/A   Clear
2:18 AM 44.6 °F 40.2 °F 32.0 °F 61% 29.91 in 10.0 mi WNW 8.1 mph - N/A   Clear
2:37 AM 44.6 °F 40.2 °F 32.0 °F 61% 29.91 in 10.0 mi West 8.1 mph - N/A   Clear
2:57 AM 44.6 °F 41.4 °F 33.8 °F 66% 29.92 in 10.0 mi West 5.8 mph - N/A   Clear
3:17 AM 44.6 °F 42.2 °F 33.8 °F 66% 29.92 in 10.0 mi NW 4.6 mph - N/A   Clear
3:38 AM 44.6 °F 43.1 °F 33.8 °F 66% 29.92 in 10.0 mi West 3.5 mph - N/A   Clear
3:57 AM 44.6 °F 43.1 °F 33.8 °F 66% 29.93 in 10.0 mi WNW 3.5 mph - N/A   Clear
4:17 AM 42.8 °F 41.1 °F 33.8 °F 70% 29.92 in 10.0 mi WSW 3.5 mph - N/A   Clear
4:37 AM 44.6 °F 42.2 °F 33.8 °F 66% 29.93 in 10.0 mi West 4.6 mph - N/A   Clear
4:58 AM 44.6 °F 42.2 °F 33.8 °F 66% 29.93 in 10.0 mi WNW 4.6 mph - N/A   Clear
5:17 AM 44.6 °F 40.7 °F 33.8 °F 66% 29.94 in 10.0 mi West 6.9 mph - N/A   Clear
5:38 AM 44.6 °F 42.2 °F 33.8 °F 66% 29.95 in 10.0 mi West 4.6 mph - N/A   Clear
5:58 AM 42.8 °F 40.1 °F 33.8 °F 70% 29.95 in 10.0 mi West 4.6 mph - N/A   Clear
6:17 AM 41.0 °F 37.1 °F 33.8 °F 76% 29.96 in 10.0 mi West 5.8 mph - N/A   Clear
6:37 AM 41.0 °F 37.1 °F 33.8 °F 76% 29.96 in 10.0 mi West 5.8 mph - N/A   Clear
6:57 AM 41.0 °F 36.4 °F 33.8 °F 76% 29.96 in 10.0 mi West 6.9 mph - N/A   Clear
7:17 AM 42.8 °F 39.3 °F 33.8 °F 70% 29.97 in 10.0 mi West 5.8 mph - N/A   Clear
7:37 AM 42.8 °F 40.1 °F 33.8 °F 70% 29.97 in 10.0 mi West 4.6 mph - N/A   Clear
8:37 AM 48.2 °F - 33.8 °F 58% 29.97 in 10.0 mi West 5.8 mph - N/A   Clear
8:58 AM 48.2 °F - 33.8 °F 58% 29.97 in 10.0 mi West 8.1 mph - N/A   Clear
9:17 AM 51.8 °F - 33.8 °F 50% 29.97 in 10.0 mi West 8.1 mph - N/A   Clear
9:38 AM 53.6 °F - 35.6 °F 51% 29.97 in 10.0 mi WNW 10.4 mph - N/A   Clear
9:58 AM 55.4 °F - 33.8 °F 44% 29.97 in 10.0 mi West 11.5 mph - N/A   Clear
10:17 AM 57.2 °F - 33.8 °F 41% 29.97 in 10.0 mi WNW 11.5 mph - N/A   Clear
10:38 AM 59.0 °F - 32.0 °F 36% 29.97 in 10.0 mi West 9.2 mph - N/A   Clear
10:58 AM 60.8 °F - 32.0 °F 34% 29.97 in 10.0 mi West 11.5 mph - N/A   Clear
11:17 AM 62.6 °F - 30.2 °F 30% 29.97 in 10.0 mi WNW 9.2 mph - N/A   Clear
11:37 AM 62.6 °F - 30.2 °F 30% 29.97 in 10.0 mi WNW 15.0 mph 18.4 mph N/A   Clear
11:57 AM 62.6 °F - 30.2 °F 30% 29.97 in 10.0 mi NW 13.8 mph - N/A   Clear
12:17 PM 64.4 °F - 28.4 °F 26% 29.96 in 10.0 mi WNW 13.8 mph - N/A   Clear
12:37 PM 66.2 °F - 26.6 °F 23% 29.96 in 10.0 mi NW 16.1 mph 27.6 mph N/A   Clear
12:57 PM 66.2 °F - 26.6 °F 23% 29.96 in 10.0 mi NNW 16.1 mph 27.6 mph N/A   Clear
1:17 PM 66.2 °F - 26.6 °F 23% 29.96 in 10.0 mi NNW 16.1 mph 23.0 mph N/A   Clear
1:37 PM 66.2 °F - 26.6 °F 23% 29.95 in 10.0 mi NNW 17.3 mph 25.3 mph N/A   Clear
1:57 PM 66.2 °F - 26.6 °F 23% 29.95 in 10.0 mi NNW 15.0 mph - N/A   Clear
2:17 PM 66.2 °F - 26.6 °F 23% 29.94 in 10.0 mi NW 16.1 mph 25.3 mph N/A   Clear
2:38 PM 66.2 °F - 26.6 °F 23% 29.94 in 10.0 mi NNW 13.8 mph - N/A   Clear
2:57 PM 68.0 °F - 26.6 °F 21% 29.93 in 10.0 mi NW 12.7 mph 20.7 mph N/A   Clear
3:17 PM 68.0 °F - 26.6 °F 21% 29.92 in 10.0 mi WNW 12.7 mph 18.4 mph N/A   Clear
3:37 PM 68.0 °F - 26.6 °F 21% 29.92 in 10.0 mi NW 10.4 mph 17.3 mph N/A   Clear
3:57 PM 68.0 °F - 26.6 °F 21% 29.91 in 10.0 mi WNW 11.5 mph 17.3 mph N/A   Clear
4:17 PM 66.2 °F - 26.6 °F 23% 29.90 in 10.0 mi WNW 11.5 mph 17.3 mph N/A   Clear
4:37 PM 68.0 °F - 26.6 °F 21% 29.90 in 10.0 mi West 12.7 mph - N/A   Clear
4:57 PM 68.0 °F - 24.8 °F 20% 29.90 in 10.0 mi West 11.5 mph 19.6 mph N/A   Clear
5:18 PM 68.0 °F - 24.8 °F 20% 29.89 in 10.0 mi West 16.1 mph 19.6 mph N/A   Clear
5:38 PM 68.0 °F - 24.8 °F 20% 29.89 in 10.0 mi WNW 15.0 mph 20.7 mph N/A   Clear
5:57 PM 66.2 °F - 24.8 °F 21% 29.88 in 10.0 mi West 11.5 mph 18.4 mph N/A   Clear
6:17 PM 66.2 °F - 24.8 °F 21% 29.88 in 10.0 mi WNW 10.4 mph 17.3 mph N/A   Scattered Clouds
6:37 PM 64.4 °F - 26.6 °F 24% 29.88 in 10.0 mi West 6.9 mph - N/A   Scattered Clouds
6:57 PM 64.4 °F - 26.6 °F 24% 29.88 in 10.0 mi West 8.1 mph - N/A   Mostly Cloudy
7:17 PM 62.6 °F - 26.6 °F 26% 29.88 in 10.0 mi West 6.9 mph - N/A   Mostly Cloudy
7:37 PM 62.6 °F - 28.4 °F 27% 29.88 in 10.0 mi WSW 4.6 mph - N/A   Overcast
7:58 PM 60.8 °F - 30.2 °F 31% 29.89 in 10.0 mi West 4.6 mph - N/A   Overcast
8:17 PM 59.0 °F - 32.0 °F 36% 29.89 in 10.0 mi Calm Calm - N/A   Mostly Cloudy
8:37 PM 59.0 °F - 30.2 °F 34% 29.89 in 10.0 mi WNW 5.8 mph - N/A   Mostly Cloudy
8:57 PM 59.0 °F - 28.4 °F 31% 29.89 in 10.0 mi WNW 6.9 mph - N/A   Mostly Cloudy
9:17 PM 60.8 °F - 28.4 °F 29% 29.88 in 10.0 mi NW 4.6 mph - N/A   Mostly Cloudy
9:38 PM 59.0 °F - 30.2 °F 34% 29.88 in 10.0 mi WSW 6.9 mph - N/A   Overcast
9:57 PM 57.2 °F - 30.2 °F 36% 29.88 in 10.0 mi WNW 3.5 mph - N/A   Overcast
10:17 PM 57.2 °F - 32.0 °F 38% 29.88 in 10.0 mi North 3.5 mph - N/A   Overcast
10:38 PM 57.2 °F - 33.8 °F 41% 29.89 in 10.0 mi West 5.8 mph - N/A Rain Rain
10:57 PM 59.0 °F - 35.6 °F 42% 29.89 in 10.0 mi NW 9.2 mph - N/A   Overcast
11:17 PM 59.0 °F - 37.4 °F 45% 29.88 in 10.0 mi NNW 13.8 mph - N/A   Overcast
11:37 PM 59.0 °F - 37.4 °F 45% 29.89 in 10.0 mi NNW 10.4 mph - N/A   Mostly Cloudy
11:58 PM 59.0 °F - 37.4 °F 45% 29.88 in 10.0 mi WNW 5.8 mph - N/A Rain Light Rain